Weather History for KCLE - February, 2014

Change the Weather History Date:

Thursday, February 27, 2014

  Actual Average Record
Temperature  
Mean Temperature 12 °F 33 °F  
Max Temperature 19 °F 41 °F 66 °F (1996)
Min Temperature 5 °F 26 °F -10 °F (1963)
Degree Days  
Heating Degree Days 53 32  
Month to date heating degree days 1131 932  
Since 1 July heating degree days 4629 4184  
Cooling Degree Days 0 0  
Month to date cooling degree days 0 0  
Year to date cooling degree days 0 0  
Moisture  
Dew Point 2 °F    
Average Humidity 59    
Maximum Humidity 80    
Minimum Humidity 38    
Precipitation  
Precipitation 0.03 in 0.09 in 1.07 in (1997)
Month to date precipitation 3.03 2.25  
Year to date precipitation 5.03 4.97  
Snow  
Snow 1.00 in 0.50 in - ()
Month to date snowfall 23.8 14.4  
Since 1 July snowfall 69.7 51.7  
Snow Depth 1.00 in    
Sea Level Pressure  
Sea Level Pressure 29.85 in    
Wind  
Wind Speed 16 mph (West)    
Max Wind Speed 31 mph    
Max Gust Speed 41 mph    
Visibility 5 miles    
Events Snow    
T = Trace of Precipitation, MM = Missing Value Source: NWS Daily Summary

Daily Weather History Graph

Daily Weather History Graph

Search for Another Location

Airport or City:

Trip Planner

Search our weather history database for the weather conditions in past years. The results will help you decide how hot, cold, wet, or windy it might be!

Date:

Astronomy

Feb. 27, 2014 Rise Set
Actual Time 7:05 AM EST 6:15 PM EST
Civil Twilight 6:37 AM EST 6:43 PM EST
Nautical Twilight 6:05 AM EST 7:15 PM EST
Astronomical Twilight 5:33 AM EST 7:47 PM EST
Moon 5:37 AM EST (2/27) 4:39 PM EST (2/27)
Length of Visible Light 12h 06m
Length of Day
11h 10m
Waning Crescent, 4% of the Moon is Illuminated
Feb 27
Waning Crescent
Mar 1
New
Mar 8
First Quarter
Mar 16
Full
Mar 23
Last Quarter

Hourly Weather History & Observations

Time (EST) Temp. Windchill Dew Point Humidity Pressure Visibility Wind Dir Wind Speed Gust Speed Precip Events Conditions
12:51 AM 17.1 °F 1.0 °F 1.9 °F 52% 29.75 in 10.0 mi WSW 18.4 mph 26.5 mph N/A   Overcast
1:51 AM 17.1 °F 3.0 °F 1.0 °F 50% 29.73 in 10.0 mi SW 13.8 mph 21.9 mph N/A   Mostly Cloudy
2:51 AM 17.1 °F 2.5 °F 1.0 °F 50% 29.69 in 10.0 mi SW 15.0 mph - N/A   Overcast
3:51 AM 17.1 °F 2.5 °F 1.9 °F 52% 29.65 in 10.0 mi SW 15.0 mph 25.3 mph N/A   Overcast
4:51 AM 18.0 °F 1.3 °F 5.0 °F 57% 29.63 in 10.0 mi SW 20.7 mph 29.9 mph N/A   Overcast
5:22 AM 18.0 °F 2.6 °F 7.0 °F 62% 29.59 in 5.0 mi SW 17.3 mph 28.8 mph 0.00 in Snow Light Snow
5:51 AM 18.0 °F 3.6 °F 8.1 °F 65% 29.63 in 5.0 mi SW 15.0 mph 29.9 mph 0.00 in Snow Light Snow
5:56 AM 17.1 °F 3.0 °F 9.0 °F 71% 29.59 in 6.0 mi SW 13.8 mph 29.9 mph 0.00 in Snow Light Snow
6:51 AM 19.0 °F 2.7 °F 8.1 °F 62% 29.63 in 3.0 mi WSW 20.7 mph 33.4 mph 0.00 in Snow Light Snow
7:10 AM 18.0 °F 1.7 °F 10.0 °F 71% 29.60 in 1.8 mi WSW 19.6 mph 27.6 mph 0.00 in Snow Light Snow
7:35 AM 18.0 °F 2.2 °F 10.0 °F 71% 29.61 in 3.0 mi WSW 18.4 mph 25.3 mph 0.00 in Snow Light Snow
7:48 AM 19.4 °F 1.4 °F 8.6 °F 63% 29.61 in 2.5 mi West 26.5 mph 35.7 mph 0.00 in Snow Light Snow
7:51 AM 19.0 °F 0.6 °F 9.0 °F 65% 29.65 in 0.8 mi West 27.6 mph 36.8 mph 0.00 in Snow Light Snow
8:00 AM 19.0 °F 2.0 °F 8.1 °F 62% 29.62 in 3.0 mi WSW 23.0 mph 31.1 mph 0.00 in Snow Light Snow
8:32 AM 19.0 °F 0.6 °F 10.0 °F 68% 29.65 in 0.8 mi West 27.6 mph 34.5 mph 0.00 in Snow Light Snow
8:43 AM 17.1 °F -0.3 °F 10.9 °F 77% 29.67 in 0.2 mi WNW 21.9 mph 29.9 mph 0.00 in Snow Heavy Snow
8:51 AM 16.0 °F -1.3 °F 10.9 °F 81% 29.71 in 0.2 mi West 20.7 mph 29.9 mph 0.01 in Snow Heavy Snow
9:09 AM 16.0 °F -2.1 °F 10.0 °F 77% 29.69 in 0.2 mi WNW 23.0 mph 29.9 mph 0.00 in Snow Heavy Snow
9:32 AM 16.0 °F -2.5 °F 7.0 °F 68% 29.71 in 3.0 mi WNW 24.2 mph 34.5 mph 0.01 in Snow Light Snow
9:46 AM 15.8 °F -4.1 °F 6.8 °F 68% 29.72 in 1.0 mi WNW 28.8 mph 41.4 mph 0.01 in Snow Blowing Snow
9:51 AM 16.0 °F -1.7 °F 5.0 °F 62% 29.77 in 1.0 mi WNW 21.9 mph 41.4 mph 0.01 in Snow Light Snow
10:51 AM 16.0 °F 0.6 °F 1.0 °F 52% 29.83 in 2.0 mi WNW 16.1 mph 32.2 mph 0.00 in Snow Light Snow
11:19 AM 17.1 °F -0.6 °F 1.0 °F 50% 29.82 in 7.0 mi WNW 23.0 mph 33.4 mph 0.00 in Snow Light Snow
11:25 AM 15.1 °F -2.0 °F 1.9 °F 56% 29.83 in 1.0 mi NW 19.6 mph 33.4 mph 0.00 in Snow Light Snow
11:37 AM 15.1 °F -2.9 °F 1.9 °F 56% 29.84 in 3.0 mi NW 21.9 mph 31.1 mph 0.00 in Snow Light Snow
11:47 AM 15.8 °F -3.4 °F 1.4 °F 53% 29.85 in 1.2 mi WNW 26.5 mph 36.8 mph 0.00 in Snow Light Snow
11:51 AM 14.0 °F -5.8 °F 5.0 °F 67% 29.91 in 0.2 mi NW 26.5 mph 36.8 mph 0.00 in Snow Heavy Snow
11:56 AM 12.0 °F -6.0 °F 6.1 °F 77% 29.87 in 0.1 mi NNW 19.6 mph 36.8 mph 0.00 in Snow Heavy Snow
12:06 PM 12.0 °F -7.3 °F 5.0 °F 73% 29.88 in 0.2 mi NNW 23.0 mph 32.2 mph 0.00 in Snow Heavy Snow
12:38 PM 12.0 °F -6.0 °F 1.9 °F 64% 29.91 in 2.0 mi NW 19.6 mph 32.2 mph 0.00 in Snow Light Snow
12:51 PM 12.0 °F -5.1 °F 1.9 °F 64% 29.96 in 3.0 mi NW 17.3 mph 29.9 mph 0.00 in Snow Light Snow
1:51 PM 12.0 °F -8.8 °F -2.9 °F 51% 30.01 in 3.0 mi West 27.6 mph 34.5 mph 0.01 in Snow Light Snow
2:25 PM 10.9 °F -7.9 °F 1.0 °F 64% 29.99 in 1.0 mi WNW 20.7 mph 32.2 mph N/A Snow Light Snow
2:35 PM 12.0 °F -6.0 °F -0.9 °F 56% 29.99 in 3.0 mi West 19.6 mph 27.6 mph N/A Snow Light Snow
2:51 PM 12.0 °F -6.9 °F -5.1 °F 46% 30.05 in 3.0 mi WNW 21.9 mph 34.5 mph N/A Snow Light Snow
3:51 PM 12.9 °F -4.9 °F -8.0 °F 39% 30.07 in 10.0 mi West 19.6 mph 27.6 mph N/A   Mostly Cloudy
4:51 PM 12.0 °F -5.6 °F -9.0 °F 39% 30.11 in 10.0 mi WNW 18.4 mph 25.3 mph N/A   Mostly Cloudy
5:51 PM 10.9 °F -3.4 °F -9.0 °F 40% 30.14 in 10.0 mi WNW 11.5 mph - N/A   Scattered Clouds
6:51 PM 10.0 °F -3.7 °F -9.0 °F 42% 30.17 in 10.0 mi WNW 10.4 mph - 0.00 in   Scattered Clouds
7:51 PM 8.1 °F -4.3 °F -9.0 °F 46% 30.19 in 10.0 mi West 8.1 mph - N/A   Partly Cloudy
8:51 PM 9.0 °F -3.2 °F -8.0 °F 46% 30.20 in 10.0 mi WNW 8.1 mph - N/A   Mostly Cloudy
9:51 PM 9.0 °F -0.9 °F -7.1 °F 48% 30.22 in 10.0 mi NW 5.8 mph - N/A   Mostly Cloudy
10:51 PM 7.0 °F 0.1 °F -8.0 °F 51% 30.24 in 10.0 mi West 3.5 mph - N/A   Scattered Clouds
11:51 PM 5.0 °F -2.1 °F -7.1 °F 58% 30.25 in 10.0 mi WSW 3.5 mph - N/A   Scattered Clouds